Regional Weather Roundup
Issued by NWS Jackson, KY

Home | Current Version | Previous Version | Text Only | Print | Product List | Glossary Off
Versions: 1 2 3 4 5 6 7 8 9 10 11 12 13 14 15 16 17 18 19 20 21 22 23 24 25 26 27 28 29 30 31 32 33 34 35 36 37 38 39 40 41 42 43 44 45 46 47 48 49 50

373
ASUS43 KJKL 130110
RWRJKL

EAST KENTUCKY HOURLY WEATHER ROUNDUP
NATIONAL WEATHER SERVICE JACKSON KY
800 PM EST FRI FEB 12 2016

NOTE: "FAIR" INDICATES FEW OR NO CLOUDS BELOW 12,000 FEET WITH
NO SIGNIFICANT WEATHER AND/OR OBSTRUCTIONS TO VISIBILITY.

* THESE REPORTS ARE NOT UNDER NWS QUALITY CONTROL AND MAY NOT
  REPORT WEATHER SUCH AS PRECIPITATION AND FOG.

KYZ079-080-083-085-087-088-110-112-115-119-120-130200
...EASTERN KENTUCKY...

CITY           SKY/WX    TMP DP  RH WIND       PRES   REMARKS
JACKSON        LGT SNOW  29  21  72 W9        30.13R WCI  20
LONDON         CLOUDY    30  22  72 W10       30.18R WCI  21
SOMERSET*      CLOUDY    30  23  74 NW13      30.24R WCI  20
MONTICELLO*    CLOUDY    30  24  78 W17G26    30.25R WCI  18
WILLIAMSBURG*  CLOUDY    30  27  86 W8        30.20R WCI  23
MIDDLESBORO*   CLOUDY    31  24  74 NW6       30.19R WCI  26
HARLAN APT*    CLOUDY    30  23  74 SW8       30.15R WCI  23
HAZARD APT*    CLOUDY    27  18  69 W13G18    30.14R WCI  16
BIG SANDY*     CLOUDY    30  21  69 W7        30.11R WCI  23
MOREHEAD APT*  CLOUDY    28  16  59 W9G22     30.16R WCI  20
$$

KYZ035-036-041-042-044-050-067-078-099-130200
...CENTRAL KENTUCKY...

CITY           SKY/WX    TMP DP  RH WIND       PRES   REMARKS
MT STERLING*   FLURRIES  28  21  74 NW18G26   30.19R WCI  16
DANVILLE*      CLOUDY    30  21  69 NW14G22   30.23R WCI  20
RICHMOND*      CLOUDY    30  19  64 NW18G28   30.19R WCI  18
LEXINGTON      CLOUDY    28  19  69 W15       30.20R WCI  16
FRANKFORT      CLOUDY    28  19  69 NW13G21   30.21R WCI  17
$$

KYZ091>093-OHZ055-061-077-WVZ005-015-034-035-042-130200
...SOUTHERN OHIO/WEST VIRGINIA...

CITY           SKY/WX    TMP DP  RH WIND       PRES   REMARKS
COVINGTON      LGT SNOW  24  16  71 W26G36    30.18R WCI   8
COLUMBUS       LGT SNOW  20  12  71 NW18G26   30.09R FOG     WCI   5
DAYTON         MOCLDY    18  13  80 NW15      30.16R WCI   4
WILMINGTON     MIX PCPN  21  13  71 NW20G28   30.13R WCI   6
HUNTINGTON     CLOUDY    30  17  58 W10G21    30.11R WCI  21
CHARLESTON     CLOUDY    29  15  56 W13       30.07R WCI  19
PINEVILLE*     FLURRIES  28  20  72 MISG      30.08S
BECKLEY        FLURRIES  24  18  77 W13G21    29.96S WCI  12
$$

VAZ002-007-008-TNZ017-027-036-066-071-130200
...SOUTHWEST VIRGINIA/EAST TENNESSEE...

CITY           SKY/WX    TMP DP  RH WIND       PRES   REMARKS
BRISTOL        CLOUDY    32  26  78 W14       30.11R WCI  22
KNOXVILLE      CLOUDY    35  27  72 W9        30.21R WCI  28
OAK RIDGE      CLOUDY    36  27  69 CALM      30.22R
CROSSVILLE     CLOUDY    32  24  72 NW16G26   30.18R WCI  21
NASHVILLE      CLOUDY    36  23  59 NW13      30.32R WCI  27
$$

...KEY TO REMARKS...
VSB - VISIBILITY IN MILES
WCI - WIND CHILL INDEX
HX  - HEAT INDEX

$$




USA.gov is the U.S. government's official web portal to all federal, state and local government web resources and services.